Regional Weather Roundup
Issued by NWS Albany, NY

Home | Current Version | Previous Version | Text Only | Print | Product List | Glossary On
Versions: 1 2 3 4 5 6 7 8 9 10 11 12 13 14 15 16 17 18 19 20 21 22 23 24 25 26 27 28 29 30 31 32 33 34 35 36 37 38 39 40 41 42 43 44 45 46 47 48 49 50
000
ASUS41 KALY 271410
RWRALY

NEW YORK STATE HOURLY WEATHER ROUNDUP
NATIONAL WEATHER SERVICE ALBANY NY
900 AM EST FRI FEB 27 2015

NOTE: "FAIR" INDICATES FEW OR NO CLOUDS BELOW 12,000 FEET WITH NO
SIGNIFICANT WEATHER AND/OR NO OBSTRUCTIONS TO VISIBILITY.

NYZ032-033-038>043-046>054-057>066-NYZ062>081-271500-
EAST


CITY           SKY/WX    TMP DP  RH WIND       PRES   REMARKS
ALBANY         SUNNY     11  -3  53 N9        30.41R WCI  -2
GLENS FALLS    SUNNY      5  -3  69 CALM      30.39R
POUGHKEEPSIE   SUNNY     14  -1  51 NE6       30.40R WCI   5
NEWBURGH       SUNNY     12   1  62 CALM      30.37R
MONTGOMERY     SUNNY     10   0  63 CALM      30.37R
WHITE PLAINS   SUNNY     16   2  54 N13       30.34R WCI   2
ISLIP          MOSUNNY   21   7  54 N13       30.34R WCI   9
NEW YORK CITY  MOSUNNY   20   6  55 NW14      30.39R WCI   7
CENTRAL PARK   SUNNY     19   4  51 MISG      30.39R
$$

NYZ005>009-017-018-044>046-055-056-271500-
CENTRAL


CITY           SKY/WX    TMP DP  RH WIND       PRES   REMARKS
FULTON         SUNNY      6   1  80 W6        30.41R WCI  -4
SYRACUSE       NOT AVBL
ROME           FLURRIES  -2  -6  83 CALM      30.43R
ELMIRA         SUNNY      4   0  83 SW6       30.40R WCI  -7
BINGHAMTON     SUNNY      6   1  80 W7        30.29R WCI  -6
MONTICELLO     SUNNY      9   0  66 NW6       30.30R WCI  -1
$$

NYZ026>034-041>043-271500-
NORTH


CITY           SKY/WX    TMP DP  RH WIND       PRES   REMARKS
WATERTOWN      SUNNY      3  -8  60 CALM      30.41R
FORT DRUM      NOT AVBL
MASSENA        SUNNY      0 -12  57 SW8       30.42R WCI -14
SARANAC LAKE   SUNNY     -4 -12  68 SW6       30.22R WCI -16
PLATTSBURGH    SUNNY      9 -10  42 VRB3      30.38R
$$

NYZ001>004-010>016-019>021-271500-
WEST


CITY           SKY/WX    TMP DP  RH WIND       PRES   REMARKS
NIAGARA FALLS  FLURRIES   1  -1  91 SW8       30.45R WCI -13
BUFFALO        MOSUNNY    2  -5  72 SW12      30.44R WCI -15
DUNKIRK        PTSUNNY    3  -3  76 SW9       30.48R WCI -12
JAMESTOWN      SUNNY      0  -6  78 CALM      30.33R
WELLSVILLE     MOSUNNY    3  -1  83 W5        30.28R WCI  -6
ROCHESTER      MOSUNNY    8   1  73 W9        30.43R WCI  -5
PENN YAN       SUNNY      7   0  73 SW7       30.38R WCI  -5
$$

             KEY
       WCI = WIND CHILL INDEX
       VSB = VISIBILITY
       HX  = HEAT INDEX
$$



USA.gov is the U.S. government's official web portal to all federal, state and local government web resources and services.